[keps] orb08283.2l.amsat

Ray Hoad r.hoad at att.net
Thu Oct 9 20:42:35 PDT 2008


SB KEPS @ AMSAT  $ORB08283.N
2Line Orbital Elements 08283.AMSAT

HR AMSAT ORBITAL ELEMENTS FOR AMATEUR SATELLITES IN NASA FORMAT
FROM WA5QGD FORT WORTH,TX October 9, 2008
Send Subscribe/unsubscribe to KEPS at 
http://www.amsat.org/mailman/listinfo/keps
BID: ORB08283.N

DECODE 2-LINE ELSETS WITH THE FOLLOWING KEY:
1 AAAAAU 00  0  0 BBBBB.BBBBBBBB  .CCCCCCCC  00000-0  00000-0 0  DDDZ
2 AAAAA EEE.EEEE FFF.FFFF GGGGGGG HHH.HHHH III.IIII JJ.JJJJJJJJKKKKKZ
KEY: A-CATALOGNUM B-EPOCHTIME C-DECAY D-ELSETNUM E-INCLINATION F-RAAN
G-ECCENTRICITY H-ARGPERIGEE I-MNANOM J-MNMOTION K-ORBITNUM Z-CHECKSUM

TO ALL RADIO AMATEURS BT

AO-07
1 07530U 74089B   08283.65627308 -.00000027  00000-0  10000-3 0  2976
2 07530 101.4568 311.2861 0012054 039.2337 320.9603 12.53574392551323
AO-10
1 14129U 83058B   08283.29233616 -.00000253  00000-0  10000-3 0  5715
2 14129 026.0321 191.7075 5961881 163.6759 229.9048 02.05869572190455
UO-11
1 14781U 84021B   08282.52361380 -.00000177  00000-0 -16301-4 0  7826
2 14781 098.1437 318.1897 0010141 070.9352 289.2961 14.79666129320615
RS-15
1 23439U 94085A   08282.62783306 -.00000039  00000-0  10000-3 0 01654
2 23439 064.8193 311.6108 0145852 100.7618 260.9761 11.27552393567751
FO-29
1 24278U 96046B   08282.78602685 -.00000075  00000-0 -36670-4 0 08865
2 24278 098.5746 184.1627 0349818 281.5509 074.6557 13.52939730599757
SO-33
1 25509U 98061B   08282.63443417 -.00000117  00000-0 -36846-4 0 02981
2 25509 031.4356 034.8829 0354908 298.9806 057.5678 14.28226793519849
AO-40
1 26609U 00072B   08281.84317556 -.00000396  00000-0  10000-3 0 01322
2 26609 007.8930 056.3693 7937776 131.2361 330.6936 01.25586975036453
VO-52
1 28650U 05017B   08282.87510629 -.00000035  00000-0  21887-5 0 00511
2 28650 097.7770 346.2937 0028035 128.4219 231.9557 14.81504640185435
PO-63
1 29712U 07001D   08282.78876581  .00000484  00000-0  70253-4 0 08647
2 29712 097.8634 338.7786 0014731 016.8586 343.3112 14.80287227094272
AO-16
1 20439U 90005D   08283.46846579  .00000007  00000-0  17802-4 0  4367
2 20439 098.2452 257.7697 0010557 191.8752 168.2210 14.31804543977279
LO-19
1 20442U 90005G   08283.56671627 -.00000132  00000-0 -33884-4 0  3595
2 20442 098.2145 266.0420 0011745 189.2662 170.8293 14.32041681977446
AO-27
1 22825U 93061C   08282.47232136  .00000047  00000-0  35165-4 0 00790
2 22825 098.3998 238.3219 0007520 288.9450 071.0920 14.29248549783954
IO-26
1 22826U 93061D   08282.85660894 -.00000012  00000-0  11655-4 0 07933
2 22826 098.3928 239.5529 0008114 284.2511 075.7785 14.29497979784103
GO-32
1 25397U 98043D   08282.86719043 -.00000099  00000-0 -25697-4 0  7168
2 25397 098.3542 312.3609 0000299 271.6853 088.4292 14.23148574532388
NO-44
1 26931U 01043C   08282.76715099  .00000084  00000-0  65209-4 0  9968
2 26931 067.0550 352.0583 0007154 262.3145 097.7146 14.29535615366642
SO-50
1 27607U 02058C   08283.46338562 -.00000124  00000-0  32634-5 0  7185
2 27607 064.5586 066.5747 0085595 257.3923 101.7592 14.71384011311781
CO-55
1 27844U 03031E   08282.76329342  .00000035  00000-0  36361-4 0 04141
2 27844 098.7177 289.4660 0010327 144.1276 216.0592 14.20599639273565
CO-57
1 27848U 03031J   08282.98801883  .00000013  00000-0  26381-4 0  3645
2 27848 098.7176 288.7641 0009812 147.5112 212.6677 14.20407270273567
AO-51
1 28375U 04025K   08282.81671453 -.00000000  00000-0  12511-4 0 02180
2 28375 098.0660 300.9710 0083493 167.4289 192.9009 14.40620032224763
CO-56
1 28941U 06005C   08283.66719146  .00021482  26660-5  14328-3 0  4466
2 28941 098.1171 050.5720 0147621 343.9304 015.7346 15.62412506147885
CP3
1 31128U 07012M   08282.83455515 -.00000048  00000-0  00000-0 0 04539
2 31128 098.0275 341.3970 0102584 344.1778 015.6201 14.51979143078429
CP4
1 31132U 07012Q   08282.68803245  .00000000  00000-0  10631-4 0 04323
2 31132 098.0318 343.9752 0085234 336.8395 022.8952 14.55146686078451
CO-65
1 32785U 08021C   08282.46094547  .00000073  00000-0  16218-4 0 01876
2 32785 097.9818 342.0322 0015745 125.0424 235.2271 14.81398751024178
NOAA-10
1 16969U 86073A   08283.55599178 -.00000106  00000-0 -24897-4 0  3217
2 16969 098.7182 305.2691 0011868 204.7506 155.3111 14.27369219147757
NOAA-11
1 19531U 88089A   08283.30518622  .00000214  00000-0  13352-3 0  3516
2 19531 098.7949 011.0233 0012270 102.1847 258.0734 14.14879959 34049
NOAA-12
1 21263U 91032A   08283.60906975  .00000021  00000-0  27563-4 0  8676
2 21263 098.7730 285.5801 0012616 149.1704 211.0217 14.25548913904695
MET-3/5
1 21655U 91056A   08282.91922053  .00000051  00000-0  10000-3 0 05009
2 21655 082.5590 024.0211 0014766 088.7580 271.5234 13.17017020824550
MET-2/21
1 22782U 93055A   08282.81514807  .00000004  00000-0 -97230-5 0  2698
2 22782 082.5511 021.4245 0021865 335.3573 024.6529 13.83632857762845
OKEAN-4
1 23317U 94066A   08282.84410262  .00000185  00000-0  19829-4 0 07162
2 23317 082.5399 209.0093 0023731 110.7461 249.6318 14.82640004755125
NOAA-14
1 23455U 94089A   08283.21000548 -.00000208  00000-0 -86400-4 0  3426
2 23455 098.9357 355.4599 0009522 176.8264 183.2994 14.13747994710467
NOAA-15
1 25338U 98030A   08283.47993115 -.00000018  00000-0  10658-4 0  6543
2 25338 098.5665 272.4911 0011617 070.8852 289.3575 14.24727269541074
RESURS
1 25394U 98043A   08283.69742073  .00000009  00000-0  21641-4 0   411
2 25394 098.3755 322.3716 0000582 202.4247 157.6907 14.24172456532744
FENGYUN1
1 25730U 99025A   08282.91958198  .00000550  00000-0  34890-3 0 05872
2 25730 098.7336 254.9042 0019590 204.4770 155.5472 14.07801539484967
OKEAN-0
1 25860U 99039A   08282.79019300  .00000017  00000-0  97832-5 0 04942
2 25860 097.7617 268.3767 0000628 047.9042 312.2217 14.73538422496120
NOAA-16
1 26536U 00055A   08283.46549571  .00000245  00000-0  15789-3 0  1282
2 26536 099.1683 275.2050 0009716 264.5159 095.4948 14.12499504414902
NOAA-17
1 27453U 02032A   08283.23289728 -.00000052  00000-0 -43755-5 0  1282
2 27453 098.5221 344.4869 0012590 133.4700 226.7555 14.24007299327038
NOAA-18
1 28654U 05018A   08283.20486528 -.00000166  00000-0 -67522-4 0  6151
2 28654 098.8765 222.7724 0014493 355.7869 004.3184 14.11197077174550
HUBBLE
1 20580U 90037B   08282.49108030  .00000328  00000-0  12533-4 0 02511
2 20580 028.4705 304.2060 0003909 147.6594 212.4235 15.00414011812013
PO-34
1 25520U 98064B   08282.92813465  .00000511  00000-0  15358-4 0 00971
2 25520 028.4585 137.2701 0005508 087.2232 272.8995 15.17238693550457
ISS
1 25544U 98067A   08283.45349883  .00009869  00000-0  78011-4 0  4128
2 25544 051.6426 150.4904 0004029 196.0234 226.3163 15.72108062566517
CO-58
1 28895U 05043F   08282.36260956  .00000033  00000-0  16392-4 0 01400
2 28895 098.0828 173.6120 0018798 058.4969 301.8042 14.59701744156993
FALCON
1 30776U 07006E   08282.96382333  .00000412  00000-0  33016-4 0 04194
2 30776 035.4335 183.4268 0001568 291.3352 068.7197 15.03068107087278
MAST
1 31126U 07012K   08282.69466363  .00000076  00000-0  28089-4 0 04344
2 31126 098.0265 342.5204 0094498 340.7901 018.9725 14.53448867078505
CAPE1
1 31130U 07012P   08282.82807652  .00000005  00000-0  12189-4 0 04250
2 31130 098.0288 341.3999 0102735 344.1721 015.6242 14.51995861078210
COMPASS
1 32787U 08021E   08282.25186501  .00000101  00000-0  19657-4 0 01688
2 32787 097.9768 341.7502 0016699 127.9917 232.2804 14.81470779024144
AAUSAT2
1 32788U 08021F   08282.91519856 -.00000023  00000-0  38797-5 0 01697
2 32788 097.9779 342.4315 0016529 126.4486 233.8229 14.81582586024243
DO-64
1 32789U 08021G   08282.86031353  .00000077  00000-0  16671-4 0 01822
2 32789 097.9782 342.4174 0016676 126.1149 234.1609 14.81488783024236
CO-66
1 32791U 08021J   08282.47018044  .00000224  00000-0  35488-4 0 01656
2 32791 097.9792 341.9889 0016996 124.8657 235.4160 14.81323452024148
RS-30
1 32953U 08025A   08282.57874939  .00000010  00000-0  00000-0 0 01295
2 32953 082.5011 053.0636 0019063 010.6868 349.4619 12.42997703017134
/EX






More information about the Keps mailing list